TimeMST,TemperatureF,Dew PointF,Humidity,Sea Level PressureIn,VisibilityMPH,Wind Direction,Wind SpeedMPH,Gust SpeedMPH,PrecipitationIn,Events,Conditions,WindDirDegrees,DateUTC
12:35 AM,41.0,35.6,81,30.03,10.0,Calm,Calm,-,N/A,,Mostly Cloudy,0,2013-03-03 07:35:00
12:55 AM,41.0,35.6,81,30.03,10.0,Calm,Calm,-,N/A,,Overcast,0,2013-03-03 07:55:00
1:15 AM,41.0,33.8,76,30.03,10.0,West,3.5,-,N/A,,Scattered Clouds,270,2013-03-03 08:15:00
1:35 AM,39.2,33.8,81,30.02,9.0,NW,3.5,-,N/A,,Partly Cloudy,310,2013-03-03 08:35:00
1:55 AM,41.0,35.6,81,30.02,10.0,NW,3.5,-,N/A,,Scattered Clouds,320,2013-03-03 08:55:00
2:15 AM,41.0,35.6,81,30.02,10.0,Calm,Calm,-,N/A,,Mostly Cloudy,0,2013-03-03 09:15:00
2:35 AM,39.2,35.6,87,30.02,9.0,SSW,4.6,-,N/A,,Overcast,210,2013-03-03 09:35:00
2:55 AM,41.0,35.6,81,30.02,10.0,West,4.6,-,N/A,,Overcast,280,2013-03-03 09:55:00
3:15 AM,41.0,35.6,81,30.02,10.0,Calm,Calm,-,N/A,,Overcast,0,2013-03-03 10:15:00
3:35 AM,41.0,35.6,81,30.02,10.0,NW,3.5,-,N/A,,Overcast,310,2013-03-03 10:35:00
4:15 AM,41.0,35.6,81,30.01,9.0,Calm,Calm,-,N/A,,Overcast,0,2013-03-03 11:15:00
4:35 AM,41.0,35.6,81,30.02,7.0,Calm,Calm,-,N/A,,Overcast,0,2013-03-03 11:35:00
5:15 AM,41.0,35.6,81,30.01,7.0,East,5.8,-,N/A,,Overcast,100,2013-03-03 12:15:00
5:55 AM,41.0,35.6,81,30.01,4.0,SE,4.6,-,0.06,,Overcast,140,2013-03-03 12:55:00
6:15 AM,41.0,35.6,81,30.01,5.0,Calm,Calm,-,N/A,,Overcast,0,2013-03-03 13:15:00
6:35 AM,41.0,35.6,81,30.00,6.0,SSE,3.5,-,N/A,,Overcast,150,2013-03-03 13:35:00
6:55 AM,41.0,35.6,81,30.00,5.0,SSE,3.5,-,N/A,,Overcast,150,2013-03-03 13:55:00
7:15 AM,41.0,35.6,81,30.00,6.0,South,4.6,-,N/A,,Overcast,190,2013-03-03 14:15:00
7:35 AM,41.0,35.6,81,30.01,3.0,Calm,Calm,-,N/A,,Overcast,0,2013-03-03 14:35:00
7:55 AM,41.0,35.6,81,30.01,4.0,Calm,Calm,-,N/A,,Overcast,0,2013-03-03 14:55:00
8:35 AM,41.0,37.4,87,30.03,5.0,NW,11.5,-,N/A,,Overcast,320,2013-03-03 15:35:00
8:55 AM,42.8,35.6,76,30.04,10.0,NW,11.5,-,N/A,,Overcast,320,2013-03-03 15:55:00
9:15 AM,42.8,33.8,70,30.04,10.0,NW,12.7,17.3,N/A,,Overcast,320,2013-03-03 16:15:00
9:35 AM,42.8,33.8,70,30.05,10.0,NNW,15.0,-,N/A,,Overcast,330,2013-03-03 16:35:00
9:55 AM,42.8,32.0,66,30.05,10.0,NNW,16.1,24.2,N/A,,Overcast,340,2013-03-03 16:55:00
10:15 AM,42.8,30.2,61,30.06,10.0,NNW,13.8,-,N/A,,Overcast,330,2013-03-03 17:15:00
10:35 AM,42.8,30.2,61,30.06,10.0,NNW,16.1,-,N/A,,Overcast,340,2013-03-03 17:35:00
10:55 AM,42.8,28.4,57,30.07,10.0,NNW,15.0,-,N/A,,Overcast,340,2013-03-03 17:55:00
11:35 AM,44.6,26.6,49,30.07,10.0,NW,19.6,-,N/A,,Overcast,320,2013-03-03 18:35:00
11:55 AM,44.6,26.6,49,30.07,10.0,NNW,16.1,25.3,N/A,,Overcast,330,2013-03-03 18:55:00
12:15 PM,44.6,24.8,46,30.07,10.0,NW,16.1,20.7,N/A,,Mostly Cloudy,320,2013-03-03 19:15:00
12:35 PM,46.4,26.6,46,30.06,10.0,NNW,13.8,19.6,N/A,,Clear,330,2013-03-03 19:35:00
12:55 PM,48.2,23.0,37,30.05,10.0,NNW,13.8,26.5,N/A,,Clear,330,2013-03-03 19:55:00
1:15 PM,48.2,23.0,37,30.05,10.0,NNW,17.3,25.3,N/A,,Partly Cloudy,340,2013-03-03 20:15:00
1:35 PM,48.2,19.4,32,30.04,10.0,NNW,19.6,28.8,N/A,,Scattered Clouds,340,2013-03-03 20:35:00
1:55 PM,48.2,15.8,27,30.03,10.0,NNW,18.4,-,N/A,,Clear,340,2013-03-03 20:55:00
2:15 PM,48.2,17.6,30,30.02,10.0,North,20.7,24.2,N/A,,Clear,350,2013-03-03 21:15:00
2:35 PM,48.2,15.8,27,30.02,10.0,North,17.3,-,N/A,,Clear,360,2013-03-03 21:35:00
2:55 PM,48.2,15.8,27,30.02,10.0,North,15.0,25.3,N/A,,Clear,10,2013-03-03 21:55:00
3:15 PM,48.2,17.6,30,30.02,10.0,North,19.6,25.3,N/A,,Clear,350,2013-03-03 22:15:00
3:35 PM,48.2,19.4,32,30.02,10.0,North,23.0,-,N/A,,Clear,360,2013-03-03 22:35:00
4:15 PM,48.2,17.6,30,30.03,10.0,NNW,20.7,27.6,N/A,,Clear,340,2013-03-03 23:15:00
4:35 PM,46.4,17.6,32,30.03,10.0,North,24.2,27.6,N/A,,Clear,360,2013-03-03 23:35:00
5:35 PM,44.6,15.8,31,30.03,10.0,North,20.7,24.2,N/A,,Clear,360,2013-03-04 00:35:00
5:55 PM,44.6,14.0,29,30.03,10.0,North,21.9,25.3,N/A,,Clear,360,2013-03-04 00:55:00
6:15 PM,42.8,12.2,29,30.05,10.0,North,16.1,25.3,N/A,,Clear,350,2013-03-04 01:15:00
6:35 PM,41.0,12.2,31,30.05,10.0,North,17.3,-,N/A,,Clear,360,2013-03-04 01:35:00
6:55 PM,39.2,14.0,36,30.06,10.0,NNW,11.5,-,N/A,,Clear,340,2013-03-04 01:55:00
7:15 PM,37.4,15.8,41,30.07,10.0,NNW,9.2,-,N/A,,Clear,340,2013-03-04 02:15:00
7:35 PM,37.4,15.8,41,30.08,10.0,NNW,11.5,-,N/A,,Clear,330,2013-03-04 02:35:00
7:55 PM,37.4,14.0,38,30.08,10.0,NNW,10.4,-,N/A,,Clear,330,2013-03-04 02:55:00
8:15 PM,35.6,14.0,41,30.09,10.0,NW,8.1,-,N/A,,Clear,320,2013-03-04 03:15:00
8:35 PM,33.8,14.0,44,30.09,10.0,NW,8.1,-,N/A,,Clear,310,2013-03-04 03:35:00
8:55 PM,30.2,15.8,55,30.10,10.0,WNW,9.2,-,N/A,,Clear,300,2013-03-04 03:55:00
9:15 PM,30.2,15.8,55,30.10,10.0,WNW,11.5,-,N/A,,Clear,300,2013-03-04 04:15:00
9:35 PM,30.2,15.8,55,30.11,10.0,NW,10.4,-,N/A,,Clear,310,2013-03-04 04:35:00
9:55 PM,30.2,15.8,55,30.12,10.0,NW,11.5,-,N/A,,Clear,310,2013-03-04 04:55:00
10:15 PM,30.2,15.8,55,30.12,10.0,WNW,9.2,-,N/A,,Clear,300,2013-03-04 05:15:00
10:35 PM,30.2,15.8,55,30.13,10.0,WNW,6.9,-,N/A,,Clear,290,2013-03-04 05:35:00
10:55 PM,30.2,15.8,55,30.13,10.0,West,9.2,-,N/A,,Clear,280,2013-03-04 05:55:00
11:15 PM,30.2,15.8,55,30.14,10.0,WNW,8.1,-,N/A,,Clear,290,2013-03-04 06:15:00
11:35 PM,28.4,15.8,59,30.14,10.0,West,9.2,-,N/A,,Clear,280,2013-03-04 06:35:00
11:55 PM,28.4,15.8,59,30.14,10.0,WNW,9.2,-,N/A,,Clear,290,2013-03-04 06:55:00